Time,TemperatureF,DewpointF,PressureIn,WindDirection,WindDirectionDegrees,WindSpeedMPH,WindSpeedGustMPH,Humidity,HourlyPrecipIn,Conditions,Clouds,dailyrainin,SoftwareType,DateUTC
2013-02-17 00:01:00,38.3,25.2,30.17,WSW,252,2.3,0.0,59,0.00,CLR,,0.00,WeatherDisplay:10.37,2013-02-17 06:01:00,
2013-02-17 00:06:00,37.9,24.9,30.17,WSW,252,2.3,0.0,59,0.00,CLR,,0.00,WeatherDisplay:10.37,2013-02-17 06:06:00,
2013-02-17 00:11:00,37.4,24.4,30.17,WSW,252,0.0,0.0,59,0.00,CLR,,0.00,WeatherDisplay:10.37,2013-02-17 06:11:00,
2013-02-17 00:16:00,37.0,24.4,30.17,WSW,252,0.0,0.0,60,0.00,CLR,,0.00,WeatherDisplay:10.37,2013-02-17 06:16:00,
2013-02-17 00:21:00,36.9,24.3,30.17,WSW,252,0.0,0.0,60,0.00,CLR,,0.00,WeatherDisplay:10.37,2013-02-17 06:21:00,
2013-02-17 00:26:00,36.9,24.7,30.17,WSW,252,0.0,0.0,61,0.00,CLR,,0.00,WeatherDisplay:10.37,2013-02-17 06:26:00,
2013-02-17 00:31:00,36.7,24.5,30.17,WSW,253,0.0,0.0,61,0.00,CLR,,0.00,WeatherDisplay:10.37,2013-02-17 06:31:00,
2013-02-17 00:36:00,36.5,24.7,30.17,WSW,252,0.0,0.0,62,0.00,CLR,,0.00,WeatherDisplay:10.37,2013-02-17 06:36:00,
2013-02-17 00:41:00,36.5,24.7,30.17,WSW,252,0.0,0.0,62,0.00,CLR,,0.00,WeatherDisplay:10.37,2013-02-17 06:41:00,
2013-02-17 00:46:00,36.3,24.5,30.17,WSW,252,0.0,0.0,62,0.00,CLR,,0.00,WeatherDisplay:10.37,2013-02-17 06:46:00,
2013-02-17 00:51:00,36.3,24.9,30.17,WSW,252,0.0,0.0,63,0.00,CLR,,0.00,WeatherDisplay:10.37,2013-02-17 06:51:00,
2013-02-17 00:56:00,36.3,24.9,30.17,WSW,252,0.0,0.0,63,0.00,CLR,,0.00,WeatherDisplay:10.37,2013-02-17 06:56:00,
2013-02-17 01:01:00,36.3,24.9,30.17,WSW,252,0.0,0.0,63,0.00,CLR,,0.00,WeatherDisplay:10.37,2013-02-17 07:01:00,
2013-02-17 01:06:00,36.3,24.9,30.17,WSW,252,0.0,0.0,63,0.00,CLR,,0.00,WeatherDisplay:10.37,2013-02-17 07:06:00,
2013-02-17 01:11:00,36.1,24.7,30.17,WSW,253,0.0,0.0,63,0.00,CLR,,0.00,WeatherDisplay:10.37,2013-02-17 07:11:00,
2013-02-17 01:16:00,36.1,24.7,30.17,WSW,253,0.0,0.0,63,0.00,CLR,,0.00,WeatherDisplay:10.37,2013-02-17 07:16:00,
2013-02-17 01:21:00,36.1,24.7,30.17,WSW,253,0.0,0.0,63,0.00,CLR,,0.00,WeatherDisplay:10.37,2013-02-17 07:21:00,
2013-02-17 01:26:00,36.1,24.7,30.17,WSW,252,0.0,0.0,63,0.00,CLR,,0.00,WeatherDisplay:10.37,2013-02-17 07:26:00,
2013-02-17 01:31:00,36.1,24.7,30.17,WSW,252,0.0,0.0,63,0.00,CLR,,0.00,WeatherDisplay:10.37,2013-02-17 07:31:00,
2013-02-17 01:36:00,36.1,24.7,30.17,WSW,253,0.0,0.0,63,0.00,CLR,,0.00,WeatherDisplay:10.37,2013-02-17 07:36:00,
2013-02-17 01:41:00,36.1,24.7,30.17,WSW,252,0.0,0.0,63,0.00,CLR,,0.00,WeatherDisplay:10.37,2013-02-17 07:41:00,
2013-02-17 01:46:00,36.1,24.7,30.17,WSW,253,0.0,0.0,63,0.00,CLR,,0.00,WeatherDisplay:10.37,2013-02-17 07:46:00,
2013-02-17 01:51:00,36.3,24.5,30.17,WSW,253,0.0,0.0,62,0.00,CLR,,0.00,WeatherDisplay:10.37,2013-02-17 07:51:00,
2013-02-17 01:56:00,36.3,24.5,30.17,WSW,253,0.0,0.0,62,0.00,CLR,,0.00,WeatherDisplay:10.37,2013-02-17 07:56:00,
2013-02-17 02:01:00,36.3,24.5,30.17,WSW,252,0.0,0.0,62,0.00,CLR,,0.00,WeatherDisplay:10.37,2013-02-17 08:01:00,
2013-02-17 02:06:00,36.3,24.5,30.15,WSW,252,0.0,0.0,62,0.00,CLR,,0.00,WeatherDisplay:10.37,2013-02-17 08:06:00,
2013-02-17 02:11:00,36.1,24.4,30.15,WSW,253,2.3,0.0,62,0.00,CLR,,0.00,WeatherDisplay:10.37,2013-02-17 08:11:00,
2013-02-17 02:16:00,36.7,24.9,30.15,WSW,257,2.7,0.0,62,0.00,CLR,,0.00,WeatherDisplay:10.37,2013-02-17 08:16:00,
2013-02-17 02:21:00,36.7,24.9,30.15,WSW,257,3.5,3.5,62,0.00,CLR,,0.00,WeatherDisplay:10.37,2013-02-17 08:21:00,
2013-02-17 02:26:00,37.0,25.2,30.15,WSW,255,3.5,3.5,62,0.00,CLR,,0.00,WeatherDisplay:10.37,2013-02-17 08:26:00,
2013-02-17 02:31:00,37.2,25.0,30.15,WSW,256,3.5,0.0,61,0.00,CLR,,0.00,WeatherDisplay:10.37,2013-02-17 08:31:00,
2013-02-17 02:36:00,37.0,24.8,30.15,WSW,256,2.3,0.0,61,0.00,CLR,,0.00,WeatherDisplay:10.37,2013-02-17 08:36:00,
2013-02-17 02:41:00,37.0,24.8,30.15,WSW,254,3.5,3.5,61,0.00,CLR,,0.00,WeatherDisplay:10.37,2013-02-17 08:41:00,
2013-02-17 02:46:00,36.9,24.7,30.15,WSW,253,3.5,3.5,61,0.00,CLR,,0.00,WeatherDisplay:10.37,2013-02-17 08:46:00,
2013-02-17 02:52:00,37.0,24.8,30.15,WSW,242,3.5,3.6,61,0.00,CLR,,0.00,WeatherDisplay:10.37,2013-02-17 08:52:00,
2013-02-17 02:57:00,36.7,24.5,30.15,WSW,252,3.5,3.6,61,0.00,CLR,,0.00,WeatherDisplay:10.37,2013-02-17 08:57:00,
2013-02-17 03:02:00,36.9,25.0,30.15,WSW,245,4.6,4.6,62,0.00,CLR,,0.00,WeatherDisplay:10.37,2013-02-17 09:02:00,
2013-02-17 03:07:00,37.0,25.6,30.11,WSW,253,4.6,4.6,63,0.00,CLR,,0.00,WeatherDisplay:10.37,2013-02-17 09:07:00,
2013-02-17 03:12:00,37.2,25.8,30.11,WSW,253,3.5,3.5,63,0.00,CLR,,0.00,WeatherDisplay:10.37,2013-02-17 09:12:00,
2013-02-17 03:17:00,37.4,25.6,30.11,WSW,248,3.5,3.5,62,0.00,CLR,,0.00,WeatherDisplay:10.37,2013-02-17 09:17:00,
2013-02-17 03:22:00,37.6,25.7,30.11,WSW,258,3.5,3.5,62,0.00,CLR,,0.00,WeatherDisplay:10.37,2013-02-17 09:22:00,
2013-02-17 03:27:00,37.6,25.7,30.11,WSW,253,3.5,3.6,62,0.00,CLR,,0.00,WeatherDisplay:10.37,2013-02-17 09:27:00,
2013-02-17 03:32:00,37.6,25.7,30.11,West,261,4.0,4.0,62,0.00,CLR,,0.00,WeatherDisplay:10.37,2013-02-17 09:32:00,
2013-02-17 03:37:00,37.8,25.9,30.11,WSW,256,4.6,4.6,62,0.00,CLR,,0.00,WeatherDisplay:10.37,2013-02-17 09:37:00,
2013-02-17 03:42:00,37.6,25.7,30.11,WSW,252,3.5,3.6,62,0.00,CLR,,0.00,WeatherDisplay:10.37,2013-02-17 09:42:00,
2013-02-17 03:47:00,37.4,25.6,30.11,WSW,249,4.6,4.6,62,0.00,CLR,,0.00,WeatherDisplay:10.37,2013-02-17 09:47:00,
2013-02-17 03:52:00,37.4,25.9,30.11,West,260,5.8,5.8,63,0.00,CLR,,0.00,WeatherDisplay:10.37,2013-02-17 09:52:00,
2013-02-17 03:57:00,37.6,26.1,30.11,WSW,255,5.8,5.8,63,0.00,CLR,,0.00,WeatherDisplay:10.37,2013-02-17 09:57:00,
2013-02-17 04:02:00,37.4,26.3,30.11,WSW,245,5.8,5.8,64,0.00,CLR,,0.00,WeatherDisplay:10.37,2013-02-17 10:02:00,
2013-02-17 04:07:00,37.4,26.3,30.11,WSW,247,5.8,5.8,64,0.00,CLR,,0.00,WeatherDisplay:10.37,2013-02-17 10:07:00,
2013-02-17 04:12:00,37.4,26.3,30.11,WSW,248,5.8,5.8,64,0.00,CLR,,0.00,WeatherDisplay:10.37,2013-02-17 10:12:00,
2013-02-17 04:17:00,37.4,26.3,30.11,WSW,244,5.8,5.8,64,0.00,CLR,,0.00,WeatherDisplay:10.37,2013-02-17 10:17:00,
2013-02-17 04:22:00,37.6,26.9,30.11,WSW,253,5.8,5.8,65,0.00,CLR,,0.00,WeatherDisplay:10.37,2013-02-17 10:22:00,
2013-02-17 04:27:00,37.6,26.9,30.11,West,263,5.8,5.8,65,0.00,CLR,,0.00,WeatherDisplay:10.37,2013-02-17 10:27:00,
2013-02-17 04:32:00,37.4,26.7,30.11,SW,236,5.8,5.8,65,0.00,CLR,,0.00,WeatherDisplay:10.37,2013-02-17 10:32:00,
2013-02-17 04:37:00,37.4,26.7,30.11,WSW,258,5.8,5.8,65,0.00,CLR,,0.00,WeatherDisplay:10.37,2013-02-17 10:37:00,
2013-02-17 04:42:00,37.4,27.1,30.11,WSW,243,5.8,5.8,66,0.00,CLR,,0.00,WeatherDisplay:10.37,2013-02-17 10:42:00,
2013-02-17 04:47:00,37.2,26.9,30.11,WSW,240,5.8,5.8,66,0.00,CLR,,0.00,WeatherDisplay:10.37,2013-02-17 10:47:00,
2013-02-17 04:52:00,37.4,27.1,30.11,WSW,243,5.8,5.8,66,0.00,CLR,,0.00,WeatherDisplay:10.37,2013-02-17 10:52:00,
2013-02-17 04:57:00,37.2,26.9,30.11,WSW,238,5.8,5.8,66,0.00,CLR,,0.00,WeatherDisplay:10.37,2013-02-17 10:57:00,
2013-02-17 05:02:00,37.0,26.7,30.11,West,265,5.8,5.8,66,0.00,CLR,,0.00,WeatherDisplay:10.37,2013-02-17 11:02:00,
2013-02-17 05:07:00,37.0,27.1,30.11,WSW,250,5.8,5.8,67,0.00,CLR,,0.00,WeatherDisplay:10.37,2013-02-17 11:07:00,
2013-02-17 05:12:00,36.9,26.9,30.11,SW,231,6.3,6.3,67,0.00,CLR,,0.00,WeatherDisplay:10.37,2013-02-17 11:12:00,
2013-02-17 05:17:00,36.7,27.1,30.11,SSW,213,5.8,5.8,68,0.00,CLR,,0.00,WeatherDisplay:10.37,2013-02-17 11:17:00,
2013-02-17 05:22:00,36.7,27.1,30.11,WSW,245,5.8,5.8,68,0.00,CLR,,0.00,WeatherDisplay:10.37,2013-02-17 11:22:00,
2013-02-17 05:27:00,36.7,27.5,30.11,SSW,209,5.8,5.8,69,0.00,CLR,,0.00,WeatherDisplay:10.37,2013-02-17 11:27:00,
2013-02-17 05:32:00,36.7,27.5,30.11,West,264,5.8,5.8,69,0.00,CLR,,0.00,WeatherDisplay:10.37,2013-02-17 11:32:00,
2013-02-17 05:37:00,36.7,27.5,30.11,WSW,239,5.8,5.8,69,0.00,CLR,,0.00,WeatherDisplay:10.37,2013-02-17 11:37:00,
2013-02-17 05:42:00,36.7,27.5,30.11,SW,235,5.8,5.8,69,0.00,CLR,,0.00,WeatherDisplay:10.37,2013-02-17 11:42:00,
2013-02-17 05:47:00,36.7,27.5,30.11,WSW,240,5.8,5.8,69,0.00,CLR,,0.00,WeatherDisplay:10.37,2013-02-17 11:47:00,
2013-02-17 05:53:00,36.7,27.8,30.11,WSW,240,5.8,5.8,70,0.00,CLR,,0.00,WeatherDisplay:10.37,2013-02-17 11:53:00,
2013-02-17 05:58:00,36.5,27.6,30.11,WSW,257,5.8,5.8,70,0.00,CLR,,0.00,WeatherDisplay:10.37,2013-02-17 11:58:00,
2013-02-17 06:03:00,36.5,27.6,30.11,SW,229,5.8,5.8,70,0.00,CLR,,0.00,WeatherDisplay:10.37,2013-02-17 12:03:00,
2013-02-17 06:08:00,36.5,28.0,30.11,WSW,249,5.8,5.8,71,0.00,CLR,,0.00,WeatherDisplay:10.37,2013-02-17 12:08:00,
2013-02-17 06:13:00,36.5,28.0,30.11,SW,235,5.8,5.8,71,0.00,CLR,,0.00,WeatherDisplay:10.37,2013-02-17 12:13:00,
2013-02-17 06:18:00,36.3,27.8,30.11,WSW,247,5.8,5.8,71,0.00,CLR,,0.00,WeatherDisplay:10.37,2013-02-17 12:18:00,
2013-02-17 06:23:00,36.3,27.8,30.11,SSW,210,5.8,5.8,71,0.00,CLR,,0.00,WeatherDisplay:10.37,2013-02-17 12:23:00,
2013-02-17 06:28:00,36.5,28.3,30.11,WSW,244,5.8,5.8,72,0.00,CLR,,0.00,WeatherDisplay:10.37,2013-02-17 12:28:00,
2013-02-17 06:33:00,36.3,28.2,30.11,SW,233,5.8,5.8,72,0.00,CLR,,0.00,WeatherDisplay:10.37,2013-02-17 12:33:00,
2013-02-17 06:38:00,36.1,28.0,30.11,West,266,5.8,5.8,72,0.00,CLR,,0.00,WeatherDisplay:10.37,2013-02-17 12:38:00,
2013-02-17 06:43:00,36.3,28.2,30.11,WSW,246,5.8,5.8,72,0.00,CLR,,0.00,WeatherDisplay:10.37,2013-02-17 12:43:00,
2013-02-17 06:48:00,36.3,28.2,30.11,WSW,254,5.8,5.8,72,0.00,CLR,,0.00,WeatherDisplay:10.37,2013-02-17 12:48:00,
2013-02-17 06:53:00,36.3,28.2,30.11,SW,224,5.8,5.8,72,0.00,CLR,,0.00,WeatherDisplay:10.37,2013-02-17 12:53:00,
2013-02-17 06:58:00,36.1,28.0,30.11,WSW,256,5.8,5.8,72,0.00,CLR,,0.00,WeatherDisplay:10.37,2013-02-17 12:58:00,
2013-02-17 07:03:00,36.3,28.5,30.11,WSW,237,5.8,5.8,73,0.00,CLR,,0.00,WeatherDisplay:10.37,2013-02-17 13:03:00,
2013-02-17 07:08:00,36.1,28.3,30.11,SW,221,6.3,6.3,73,0.00,CLR,,0.00,WeatherDisplay:10.37,2013-02-17 13:08:00,
2013-02-17 07:13:00,36.3,28.5,30.11,WSW,257,5.8,5.8,73,0.00,CLR,,0.00,WeatherDisplay:10.37,2013-02-17 13:13:00,
2013-02-17 07:18:00,36.3,28.5,30.11,WSW,248,5.8,5.8,73,0.00,CLR,,0.00,WeatherDisplay:10.37,2013-02-17 13:18:00,
2013-02-17 07:23:00,36.5,28.7,30.11,WSW,248,5.8,5.8,73,0.00,CLR,,0.00,WeatherDisplay:10.37,2013-02-17 13:23:00,
2013-02-17 07:28:00,36.9,29.3,30.11,SSW,202,5.8,5.8,74,0.00,CLR,,0.00,WeatherDisplay:10.37,2013-02-17 13:28:00,
2013-02-17 07:33:00,36.9,29.3,30.11,SSW,206,6.3,6.3,74,0.00,CLR,,0.00,WeatherDisplay:10.37,2013-02-17 13:33:00,
2013-02-17 07:38:00,37.0,29.5,30.11,West,263,5.8,5.8,74,0.00,CLR,,0.00,WeatherDisplay:10.37,2013-02-17 13:38:00,
2013-02-17 07:43:00,37.2,29.7,30.11,WSW,244,6.9,6.9,74,0.00,CLR,,0.00,WeatherDisplay:10.37,2013-02-17 13:43:00,
2013-02-17 07:48:00,37.6,29.7,30.11,West,272,8.0,8.0,73,0.00,CLR,,0.00,WeatherDisplay:10.37,2013-02-17 13:48:00,
2013-02-17 07:53:00,37.9,30.1,30.11,WSW,252,5.8,5.8,73,0.00,CLR,,0.00,WeatherDisplay:10.37,2013-02-17 13:53:00,
2013-02-17 07:58:00,38.5,30.6,30.11,WSW,242,8.1,8.1,73,0.00,CLR,,0.00,WeatherDisplay:10.37,2013-02-17 13:58:00,
2013-02-17 08:03:00,38.8,30.9,30.11,West,270,5.8,5.8,73,0.00,CLR,,0.00,WeatherDisplay:10.37,2013-02-17 14:03:00,
2013-02-17 08:08:00,39.4,31.1,30.11,SSW,207,8.1,8.1,72,0.00,CLR,,0.00,WeatherDisplay:10.37,2013-02-17 14:08:00,
2013-02-17 08:13:00,39.9,31.6,30.11,WSW,250,8.1,8.1,72,0.00,CLR,,0.00,WeatherDisplay:10.37,2013-02-17 14:13:00,
2013-02-17 08:18:00,40.6,32.0,30.11,WSW,258,6.9,6.9,71,0.00,CLR,,0.00,WeatherDisplay:10.37,2013-02-17 14:18:00,
2013-02-17 08:23:00,41.2,32.1,30.11,WSW,245,5.8,5.8,70,0.00,CLR,,0.00,WeatherDisplay:10.37,2013-02-17 14:23:00,
2013-02-17 08:28:00,41.7,32.3,30.11,SW,227,5.8,5.8,69,0.00,CLR,,0.00,WeatherDisplay:10.37,2013-02-17 14:28:00,
2013-02-17 08:33:00,42.4,32.6,30.11,WSW,246,5.8,5.8,68,0.00,CLR,,0.00,WeatherDisplay:10.37,2013-02-17 14:33:00,
2013-02-17 08:38:00,43.0,32.8,30.11,SW,233,6.3,6.3,67,0.00,CLR,,0.00,WeatherDisplay:10.37,2013-02-17 14:38:00,
2013-02-17 08:43:00,43.5,32.9,30.11,WSW,240,8.1,8.1,66,0.00,CLR,,0.00,WeatherDisplay:10.37,2013-02-17 14:43:00,
2013-02-17 08:48:00,44.1,33.0,30.11,WSW,246,5.8,5.8,65,0.00,CLR,,0.00,WeatherDisplay:10.37,2013-02-17 14:48:00,
2013-02-17 08:53:00,44.6,32.8,30.11,SW,220,9.2,9.2,63,0.00,CLR,,0.00,WeatherDisplay:10.37,2013-02-17 14:53:00,
2013-02-17 08:58:00,45.0,32.7,30.11,SW,225,5.8,6.3,62,0.00,CLR,,0.00,WeatherDisplay:10.37,2013-02-17 14:58:00,
2013-02-17 09:03:00,45.5,33.2,30.11,SSW,193,5.8,5.8,62,0.00,CLR,,0.00,WeatherDisplay:10.37,2013-02-17 15:03:00,
2013-02-17 09:08:00,46.0,33.3,30.11,SW,217,10.4,10.4,61,0.00,CLR,,0.00,WeatherDisplay:10.37,2013-02-17 15:08:00,
2013-02-17 09:13:00,46.4,32.8,30.11,WSW,254,8.1,8.1,59,0.00,CLR,,0.00,WeatherDisplay:10.37,2013-02-17 15:13:00,
2013-02-17 09:18:00,47.1,33.5,30.11,SW,224,6.9,6.9,59,0.00,CLR,,0.00,WeatherDisplay:10.37,2013-02-17 15:18:00,
2013-02-17 09:23:00,47.3,33.3,30.11,SSW,212,5.8,5.8,58,0.00,CLR,,0.00,WeatherDisplay:10.37,2013-02-17 15:23:00,
2013-02-17 09:28:00,48.0,33.1,30.11,SSE,159,5.8,5.8,56,0.00,CLR,,0.00,WeatherDisplay:10.37,2013-02-17 15:28:00,
2013-02-17 09:33:00,48.4,32.9,30.11,South,188,8.1,8.1,55,0.00,CLR,,0.00,WeatherDisplay:10.37,2013-02-17 15:33:00,
2013-02-17 09:38:00,48.7,33.3,30.11,SSW,193,5.4,5.4,55,0.00,CLR,,0.00,WeatherDisplay:10.37,2013-02-17 15:38:00,
2013-02-17 09:43:00,49.5,34.0,30.11,SW,232,6.9,6.9,55,0.00,CLR,,0.00,WeatherDisplay:10.37,2013-02-17 15:43:00,
2013-02-17 09:48:00,50.2,33.7,30.11,SSW,205,5.8,5.8,53,0.00,CLR,,0.00,WeatherDisplay:10.37,2013-02-17 15:48:00,
2013-02-17 09:53:00,50.7,33.2,30.11,WSW,237,5.8,5.8,51,0.00,CLR,,0.00,WeatherDisplay:10.37,2013-02-17 15:53:00,
2013-02-17 09:58:00,51.6,33.6,30.11,South,187,7.6,7.6,50,0.00,CLR,,0.00,WeatherDisplay:10.37,2013-02-17 15:58:00,
2013-02-17 10:03:00,52.2,33.0,30.11,SSW,197,9.2,9.2,48,0.00,CLR,,0.00,WeatherDisplay:10.37,2013-02-17 16:03:00,
2013-02-17 10:08:00,52.5,32.9,30.11,SW,235,5.8,5.8,47,0.00,CLR,,0.00,WeatherDisplay:10.37,2013-02-17 16:08:00,
2013-02-17 10:13:00,53.2,33.0,30.11,SW,229,5.8,5.8,46,0.00,CLR,,0.00,WeatherDisplay:10.37,2013-02-17 16:13:00,
2013-02-17 10:18:00,53.6,32.8,30.11,South,185,8.1,8.1,45,0.00,CLR,,0.00,WeatherDisplay:10.37,2013-02-17 16:18:00,
2013-02-17 10:23:00,54.1,32.1,30.11,SW,222,6.9,6.9,43,0.00,CLR,,0.00,WeatherDisplay:10.37,2013-02-17 16:23:00,
2013-02-17 10:28:00,54.7,33.2,30.11,West,274,8.1,8.1,44,0.00,CLR,,0.00,WeatherDisplay:10.37,2013-02-17 16:28:00,
2013-02-17 10:33:00,55.0,32.9,30.11,WSW,253,5.8,5.8,43,0.00,CLR,,0.00,WeatherDisplay:10.37,2013-02-17 16:33:00,
2013-02-17 10:38:00,55.6,32.2,30.11,WSW,239,5.8,5.8,41,0.00,CLR,,0.00,WeatherDisplay:10.37,2013-02-17 16:38:00,
2013-02-17 10:43:00,55.9,31.9,30.11,SW,214,8.1,8.1,40,0.00,CLR,,0.00,WeatherDisplay:10.37,2013-02-17 16:43:00,
2013-02-17 10:48:00,56.3,32.3,30.11,SSW,207,8.1,8.1,40,0.00,CLR,,0.00,WeatherDisplay:10.37,2013-02-17 16:48:00,
2013-02-17 10:54:00,56.7,32.6,30.11,WSW,257,5.8,5.8,40,0.00,CLR,,0.00,WeatherDisplay:10.37,2013-02-17 16:54:00,
2013-02-17 10:59:00,57.0,32.9,30.11,WSW,249,8.1,8.1,40,0.00,CLR,,0.00,WeatherDisplay:10.37,2013-02-17 16:59:00,
2013-02-17 11:04:00,57.7,32.9,30.11,South,188,6.3,6.3,39,0.00,CLR,,0.00,WeatherDisplay:10.37,2013-02-17 17:04:00,
2013-02-17 11:09:00,58.1,33.2,30.11,SSW,204,10.4,10.4,39,0.00,CLR,,0.00,WeatherDisplay:10.37,2013-02-17 17:09:00,
2013-02-17 11:14:00,58.6,33.1,30.11,SW,233,8.1,8.1,38,0.00,CLR,,0.00,WeatherDisplay:10.37,2013-02-17 17:14:00,
2013-02-17 11:19:00,58.8,32.6,30.11,WSW,256,8.1,8.1,37,0.00,CLR,,0.00,WeatherDisplay:10.37,2013-02-17 17:19:00,
2013-02-17 11:24:00,59.0,32.1,30.11,West,271,10.9,10.9,36,0.00,CLR,,0.00,WeatherDisplay:10.37,2013-02-17 17:24:00,
2013-02-17 11:29:00,59.9,32.2,30.11,WSW,242,9.2,9.2,35,0.00,CLR,,0.00,WeatherDisplay:10.37,2013-02-17 17:29:00,
2013-02-17 11:34:00,60.3,32.5,30.11,South,181,11.5,11.5,35,0.00,CLR,,0.00,WeatherDisplay:10.37,2013-02-17 17:34:00,
2013-02-17 11:39:00,60.4,32.6,30.11,SW,228,9.2,9.2,35,0.00,CLR,,0.00,WeatherDisplay:10.37,2013-02-17 17:39:00,
2013-02-17 11:44:00,61.0,32.4,30.11,SW,219,9.2,9.2,34,0.00,CLR,,0.00,WeatherDisplay:10.37,2013-02-17 17:44:00,
2013-02-17 11:49:00,61.3,32.0,30.11,WSW,239,9.2,9.2,33,0.00,CLR,,0.00,WeatherDisplay:10.37,2013-02-17 17:49:00,
2013-02-17 11:54:00,61.7,30.7,30.09,SSW,206,8.1,8.1,31,0.00,CLR,,0.00,WeatherDisplay:10.37,2013-02-17 17:54:00,
2013-02-17 11:59:00,62.2,33.5,30.09,West,265,8.1,8.1,34,0.00,CLR,,0.00,WeatherDisplay:10.37,2013-02-17 17:59:00,
2013-02-17 12:04:00,62.4,31.4,30.09,SSW,212,10.4,10.4,31,0.00,CLR,,0.00,WeatherDisplay:10.37,2013-02-17 18:04:00,
2013-02-17 12:09:00,63.0,30.2,30.09,SSE,155,10.5,10.5,29,0.00,CLR,,0.00,WeatherDisplay:10.37,2013-02-17 18:09:00,
2013-02-17 12:14:00,63.1,30.3,30.09,WSW,244,9.2,9.2,29,0.00,CLR,,0.00,WeatherDisplay:10.37,2013-02-17 18:14:00,
2013-02-17 12:19:00,63.3,27.8,30.09,WSW,247,10.4,10.4,26,0.00,CLR,,0.00,WeatherDisplay:10.37,2013-02-17 18:19:00,
2013-02-17 12:24:00,63.3,28.7,30.06,SSW,211,12.7,12.7,27,0.00,CLR,,0.00,WeatherDisplay:10.37,2013-02-17 18:24:00,
2013-02-17 12:29:00,63.7,28.1,30.06,South,179,9.2,9.2,26,0.00,CLR,,0.00,WeatherDisplay:10.37,2013-02-17 18:29:00,
2013-02-17 12:34:00,64.2,28.6,30.06,WSW,248,12.7,12.7,26,0.00,CLR,,0.00,WeatherDisplay:10.37,2013-02-17 18:34:00,
2013-02-17 12:39:00,64.4,25.8,30.06,WSW,249,9.2,9.2,23,0.00,CLR,,0.00,WeatherDisplay:10.37,2013-02-17 18:39:00,
2013-02-17 12:44:00,64.8,22.7,30.06,SSE,149,9.2,9.2,20,0.00,CLR,,0.00,WeatherDisplay:10.37,2013-02-17 18:44:00,
2013-02-17 12:49:00,64.8,20.2,30.06,WSW,240,11.5,11.5,18,0.00,CLR,,0.00,WeatherDisplay:10.37,2013-02-17 18:49:00,
2013-02-17 12:54:00,65.3,20.7,30.06,WSW,249,12.7,12.7,18,0.00,CLR,,0.00,WeatherDisplay:10.37,2013-02-17 18:54:00,
2013-02-17 12:59:00,65.5,23.3,30.06,SSW,199,10.4,10.4,20,0.00,CLR,,0.00,WeatherDisplay:10.37,2013-02-17 18:59:00,
2013-02-17 13:04:00,65.3,20.7,30.06,WSW,257,12.7,12.7,18,0.00,CLR,,0.00,WeatherDisplay:10.37,2013-02-17 19:04:00,
2013-02-17 13:09:00,65.8,-7.1,30.03,SW,221,13.8,13.8,5,0.00,CLR,,0.00,WeatherDisplay:10.37,2013-02-17 19:09:00,
2013-02-17 13:14:00,65.7,2.6,30.03,SSE,164,12.7,12.7,8,0.00,CLR,,0.00,WeatherDisplay:10.37,2013-02-17 19:14:00,
2013-02-17 13:19:00,66.0,-11.6,30.03,SSW,211,10.4,10.4,4,0.00,CLR,,0.00,WeatherDisplay:10.37,2013-02-17 19:19:00,
2013-02-17 13:24:00,66.0,-11.6,30.03,WSW,241,10.4,10.4,4,0.00,CLR,,0.00,WeatherDisplay:10.37,2013-02-17 19:24:00,
2013-02-17 13:29:00,66.2,0.2,30.03,WSW,245,9.2,9.2,7,0.00,CLR,,0.00,WeatherDisplay:10.37,2013-02-17 19:29:00,
2013-02-17 13:35:00,66.4,8.1,30.03,SSW,208,12.7,12.7,10,0.00,CLR,,0.00,WeatherDisplay:10.37,2013-02-17 19:35:00,
2013-02-17 13:40:00,66.2,-11.4,30.03,SW,229,12.7,12.7,4,0.00,CLR,,0.00,WeatherDisplay:10.37,2013-02-17 19:40:00,
2013-02-17 13:45:00,66.4,-11.3,30.03,SSW,203,12.7,12.7,4,0.00,CLR,,0.00,WeatherDisplay:10.37,2013-02-17 19:45:00,
2013-02-17 13:50:00,66.4,-11.3,30.03,WSW,246,10.4,10.4,4,0.00,CLR,,0.00,WeatherDisplay:10.37,2013-02-17 19:50:00,
2013-02-17 13:55:00,66.6,-11.2,30.03,SW,225,12.0,15.0,4,0.00,CLR,,0.00,WeatherDisplay:10.37,2013-02-17 19:55:00,
2013-02-17 14:00:00,66.6,-11.2,30.03,SW,225,9.0,13.0,4,0.00,CLR,,0.00,WeatherDisplay:10.37,2013-02-17 20:00:00,
2013-02-17 14:05:00,66.7,-11.1,30.03,WSW,248,12.7,12.7,4,0.00,CLR,,0.00,WeatherDisplay:10.37,2013-02-17 20:05:00,
2013-02-17 14:10:00,66.9,-10.9,30.00,SW,225,9.0,15.0,4,0.00,CLR,,0.00,WeatherDisplay:10.37,2013-02-17 20:10:00,
2013-02-17 14:15:00,66.9,-10.9,30.00,WSW,256,12.7,12.7,4,0.00,CLR,,0.00,WeatherDisplay:10.37,2013-02-17 20:15:00,
2013-02-17 14:20:00,66.9,-10.9,30.00,South,189,12.7,12.7,4,0.00,CLR,,0.00,WeatherDisplay:10.37,2013-02-17 20:20:00,
2013-02-17 14:25:00,66.7,-11.1,30.00,WSW,245,8.0,15.0,4,0.00,CLR,,0.00,WeatherDisplay:10.37,2013-02-17 20:25:00,
2013-02-17 14:30:00,66.6,-11.2,30.00,SW,223,15.0,15.0,4,0.00,CLR,,0.00,WeatherDisplay:10.37,2013-02-17 20:30:00,
2013-02-17 14:35:00,66.6,-11.2,30.00,WSW,250,15.0,15.0,4,0.00,CLR,,0.00,WeatherDisplay:10.37,2013-02-17 20:35:00,
2013-02-17 14:40:00,66.6,-11.2,30.00,WSW,243,12.7,12.7,4,0.00,CLR,,0.00,WeatherDisplay:10.37,2013-02-17 20:40:00,
2013-02-17 14:45:00,66.3,-11.4,30.00,WSW,244,12.0,15.0,4,0.00,CLR,,0.00,WeatherDisplay:10.37,2013-02-17 20:45:00,
2013-02-17 14:50:00,66.5,-11.3,30.00,WSW,241,12.0,15.0,4,0.00,CLR,,0.00,WeatherDisplay:10.37,2013-02-17 20:50:00,
2013-02-17 14:55:00,66.6,-11.2,30.00,WSW,258,12.7,12.7,4,0.00,CLR,,0.00,WeatherDisplay:10.37,2013-02-17 20:55:00,
2013-02-17 15:00:00,66.4,-11.3,30.00,WSW,252,12.0,15.0,4,0.00,CLR,,0.00,WeatherDisplay:10.37,2013-02-17 21:00:00,
2013-02-17 15:05:00,66.4,-11.3,30.00,WSW,253,10.0,15.0,4,0.00,CLR,,0.00,WeatherDisplay:10.37,2013-02-17 21:05:00,
2013-02-17 15:10:00,66.2,-11.4,30.00,WSW,248,12.0,17.0,4,0.00,CLR,,0.00,WeatherDisplay:10.37,2013-02-17 21:10:00,
2013-02-17 15:15:00,66.2,-11.4,30.00,WSW,247,17.3,17.3,4,0.00,CLR,,0.00,WeatherDisplay:10.37,2013-02-17 21:15:00,
2013-02-17 15:20:00,66.2,-11.4,30.00,SW,216,15.0,15.0,4,0.00,CLR,,0.00,WeatherDisplay:10.37,2013-02-17 21:20:00,
2013-02-17 15:25:00,66.4,-11.3,30.00,WSW,239,12.7,12.7,4,0.00,CLR,,0.00,WeatherDisplay:10.37,2013-02-17 21:25:00,
2013-02-17 15:30:00,66.2,-11.4,30.00,WSW,250,15.0,15.0,4,0.00,CLR,,0.00,WeatherDisplay:10.37,2013-02-17 21:30:00,
2013-02-17 15:35:00,66.4,-11.3,30.00,WSW,251,13.2,13.2,4,0.00,CLR,,0.00,WeatherDisplay:10.37,2013-02-17 21:35:00,
2013-02-17 15:40:00,66.4,-11.3,30.00,SW,226,9.0,15.0,4,0.00,CLR,,0.00,WeatherDisplay:10.37,2013-02-17 21:40:00,
2013-02-17 15:45:00,66.2,-11.5,30.00,SW,223,9.0,13.0,4,0.00,CLR,,0.00,WeatherDisplay:10.37,2013-02-17 21:45:00,
2013-02-17 15:50:00,66.2,-11.4,30.00,WSW,238,9.0,15.0,4,0.00,CLR,,0.00,WeatherDisplay:10.37,2013-02-17 21:50:00,
2013-02-17 15:55:00,66.0,-11.6,29.97,SW,220,12.7,12.7,4,0.00,CLR,,0.00,WeatherDisplay:10.37,2013-02-17 21:55:00,
2013-02-17 16:00:00,65.8,-11.7,29.97,SW,231,17.3,17.3,4,0.00,CLR,,0.00,WeatherDisplay:10.37,2013-02-17 22:00:00,
2013-02-17 16:05:00,65.7,-11.8,29.97,WSW,240,10.0,13.0,4,0.00,CLR,,0.00,WeatherDisplay:10.37,2013-02-17 22:05:00,
2013-02-17 16:10:00,65.7,-11.8,29.97,West,262,10.9,10.9,4,0.00,CLR,,0.00,WeatherDisplay:10.37,2013-02-17 22:10:00,
2013-02-17 16:15:00,65.7,-11.8,29.97,West,265,11.5,11.5,4,0.00,CLR,,0.00,WeatherDisplay:10.37,2013-02-17 22:15:00,
2013-02-17 16:20:00,65.5,-11.9,29.97,South,170,12.7,12.7,4,0.00,CLR,,0.00,WeatherDisplay:10.37,2013-02-17 22:20:00,
2013-02-17 16:25:00,65.5,-11.9,29.97,WSW,238,8.7,8.7,4,0.00,CLR,,0.00,WeatherDisplay:10.37,2013-02-17 22:25:00,
2013-02-17 16:30:00,65.5,-11.9,29.97,SW,222,9.0,14.0,4,0.00,CLR,,0.00,WeatherDisplay:10.37,2013-02-17 22:30:00,
2013-02-17 16:35:00,65.1,-12.2,29.97,West,272,12.7,12.7,4,0.00,CLR,,0.00,WeatherDisplay:10.37,2013-02-17 22:35:00,
2013-02-17 16:40:00,65.1,-12.2,29.97,WSW,240,9.0,15.0,4,0.00,CLR,,0.00,WeatherDisplay:10.37,2013-02-17 22:40:00,
2013-02-17 16:45:00,64.8,-12.4,29.97,WSW,245,9.0,12.0,4,0.00,CLR,,0.00,WeatherDisplay:10.37,2013-02-17 22:45:00,
2013-02-17 16:50:00,64.9,-12.3,29.97,SW,226,11.5,11.5,4,0.00,CLR,,0.00,WeatherDisplay:10.37,2013-02-17 22:50:00,
2013-02-17 16:55:00,64.8,-12.4,29.97,SW,233,15.0,15.0,4,0.00,CLR,,0.00,WeatherDisplay:10.37,2013-02-17 22:55:00,
2013-02-17 17:00:00,64.8,-12.4,29.97,SW,221,9.0,13.0,4,0.00,CLR,,0.00,WeatherDisplay:10.37,2013-02-17 23:00:00,
2013-02-17 17:05:00,64.3,-12.7,29.97,SW,217,10.0,15.0,4,0.00,CLR,,0.00,WeatherDisplay:10.37,2013-02-17 23:05:00,
2013-02-17 17:10:00,64.2,-8.3,29.97,SW,226,9.0,12.0,5,0.00,CLR,,0.00,WeatherDisplay:10.37,2013-02-17 23:10:00,
2013-02-17 17:15:00,63.9,-8.6,29.97,SW,225,9.0,13.0,5,0.00,CLR,,0.00,WeatherDisplay:10.37,2013-02-17 23:15:00,
2013-02-17 17:20:00,63.9,-8.6,29.97,WSW,253,11.5,11.5,5,0.00,CLR,,0.00,WeatherDisplay:10.37,2013-02-17 23:20:00,
2013-02-17 17:25:00,63.7,-8.7,29.97,SW,225,6.0,13.0,5,0.00,CLR,,0.00,WeatherDisplay:10.37,2013-02-17 23:25:00,
2013-02-17 17:30:00,63.1,-9.1,29.97,SW,221,7.0,10.0,5,0.00,CLR,,0.00,WeatherDisplay:10.37,2013-02-17 23:30:00,
2013-02-17 17:35:00,63.0,-9.2,29.97,WSW,245,9.2,9.2,5,0.00,CLR,,0.00,WeatherDisplay:10.37,2013-02-17 23:35:00,
2013-02-17 17:40:00,62.6,0.4,29.97,SW,222,8.0,12.0,8,0.00,CLR,,0.00,WeatherDisplay:10.37,2013-02-17 23:40:00,
2013-02-17 17:45:00,62.2,12.4,29.97,WSW,252,8.1,8.1,14,0.00,CLR,,0.00,WeatherDisplay:10.37,2013-02-17 23:45:00,
2013-02-17 17:50:00,61.9,15.1,29.97,SW,232,8.1,8.3,16,0.00,CLR,,0.00,WeatherDisplay:10.37,2013-02-17 23:50:00,
2013-02-17 17:55:00,61.5,18.8,29.97,WSW,241,8.0,11.0,19,0.00,CLR,,0.00,WeatherDisplay:10.37,2013-02-17 23:55:00,
2013-02-17 18:00:00,61.0,20.7,29.97,West,259,9.2,9.2,21,0.00,CLR,,0.00,WeatherDisplay:10.37,2013-02-18 00:00:00,
2013-02-17 18:05:00,60.8,23.7,29.97,WSW,258,11.5,11.5,24,0.00,CLR,,0.00,WeatherDisplay:10.37,2013-02-18 00:05:00,
2013-02-17 18:10:00,60.2,24.2,29.97,WSW,244,6.0,8.0,25,0.00,CLR,,0.00,WeatherDisplay:10.37,2013-02-18 00:10:00,
2013-02-17 18:15:00,59.7,24.7,29.97,WSW,248,8.1,8.1,26,0.00,CLR,,0.00,WeatherDisplay:10.37,2013-02-18 00:15:00,
2013-02-17 18:20:00,59.4,24.4,29.97,West,262,5.8,5.8,26,0.00,CLR,,0.00,WeatherDisplay:10.37,2013-02-18 00:20:00,
2013-02-17 18:25:00,58.9,25.0,29.97,WSW,254,5.0,6.0,27,0.00,CLR,,0.00,WeatherDisplay:10.37,2013-02-18 00:25:00,
2013-02-17 18:30:00,58.5,25.4,29.97,WSW,244,8.1,8.1,28,0.00,CLR,,0.00,WeatherDisplay:10.37,2013-02-18 00:30:00,
2013-02-17 18:35:00,58.1,26.0,29.97,West,267,6.9,6.9,29,0.00,CLR,,0.00,WeatherDisplay:10.37,2013-02-18 00:35:00,
2013-02-17 18:40:00,57.7,25.7,29.97,WSW,237,6.9,6.9,29,0.00,CLR,,0.00,WeatherDisplay:10.37,2013-02-18 00:40:00,
2013-02-17 18:45:00,57.6,26.3,29.97,WSW,244,6.0,8.0,30,0.00,CLR,,0.00,WeatherDisplay:10.37,2013-02-18 00:45:00,
2013-02-17 18:50:00,57.4,27.0,29.97,WSW,247,5.0,6.0,31,0.00,CLR,,0.00,WeatherDisplay:10.37,2013-02-18 00:50:00,
2013-02-17 18:55:00,56.8,27.3,29.94,WSW,254,6.9,6.9,32,0.00,CLR,,0.00,WeatherDisplay:10.37,2013-02-18 00:55:00,
2013-02-17 19:00:00,56.8,28.0,29.94,WSW,254,5.8,5.8,33,0.00,CLR,,0.00,WeatherDisplay:10.37,2013-02-18 01:00:00,
2013-02-17 19:05:00,56.7,28.6,29.94,WSW,248,5.0,6.0,34,0.00,CLR,,0.00,WeatherDisplay:10.37,2013-02-18 01:05:00,
2013-02-17 19:10:00,56.3,29.0,29.97,SW,235,5.8,5.8,35,0.00,CLR,,0.00,WeatherDisplay:10.37,2013-02-18 01:10:00,
2013-02-17 19:15:00,56.1,28.8,29.97,WSW,256,5.8,5.8,35,0.00,CLR,,0.00,WeatherDisplay:10.37,2013-02-18 01:15:00,
2013-02-17 19:20:00,55.6,28.4,29.97,WSW,252,3.0,6.0,35,0.00,CLR,,0.00,WeatherDisplay:10.37,2013-02-18 01:20:00,
2013-02-17 19:25:00,55.4,28.2,29.97,SW,231,4.9,4.9,35,0.00,CLR,,0.00,WeatherDisplay:10.37,2013-02-18 01:25:00,
2013-02-17 19:30:00,54.9,28.4,29.97,WSW,248,3.0,6.0,36,0.00,CLR,,0.00,WeatherDisplay:10.37,2013-02-18 01:30:00,
2013-02-17 19:35:00,54.9,28.4,29.97,WSW,251,3.0,6.0,36,0.00,CLR,,0.00,WeatherDisplay:10.37,2013-02-18 01:35:00,
2013-02-17 19:40:00,54.9,28.4,29.94,WSW,245,5.8,5.8,36,0.00,CLR,,0.00,WeatherDisplay:10.37,2013-02-18 01:40:00,
2013-02-17 19:45:00,54.6,28.1,29.94,WSW,256,3.0,6.0,36,0.00,CLR,,0.00,WeatherDisplay:10.37,2013-02-18 01:45:00,
2013-02-17 19:50:00,54.5,28.7,29.94,WSW,257,3.0,6.0,37,0.00,CLR,,0.00,WeatherDisplay:10.37,2013-02-18 01:50:00,
2013-02-17 19:55:00,54.3,28.6,29.97,WSW,258,3.6,3.6,37,0.00,CLR,,0.00,WeatherDisplay:10.37,2013-02-18 01:55:00,
2013-02-17 20:00:00,54.0,28.3,29.97,WSW,256,3.0,7.0,37,0.00,CLR,,0.00,WeatherDisplay:10.37,2013-02-18 02:00:00,
2013-02-17 20:05:00,53.8,28.1,29.97,West,262,4.6,4.6,37,0.00,CLR,,0.00,WeatherDisplay:10.37,2013-02-18 02:05:00,
2013-02-17 20:10:00,54.0,28.3,29.97,WSW,246,5.8,5.8,37,0.00,CLR,,0.00,WeatherDisplay:10.37,2013-02-18 02:10:00,
2013-02-17 20:15:00,54.1,29.0,29.97,WSW,256,5.0,6.0,38,0.00,CLR,,0.00,WeatherDisplay:10.37,2013-02-18 02:15:00,
2013-02-17 20:20:00,54.5,29.4,29.97,WSW,257,5.8,5.8,38,0.00,CLR,,0.00,WeatherDisplay:10.37,2013-02-18 02:20:00,
2013-02-17 20:25:00,54.7,29.5,29.97,WSW,255,5.0,8.0,38,0.00,CLR,,0.00,WeatherDisplay:10.37,2013-02-18 02:25:00,
2013-02-17 20:30:00,54.7,29.5,29.97,WSW,252,5.0,8.0,38,0.00,CLR,,0.00,WeatherDisplay:10.37,2013-02-18 02:30:00,
2013-02-17 20:35:00,54.9,29.7,29.97,West,264,5.8,5.8,38,0.00,CLR,,0.00,WeatherDisplay:10.37,2013-02-18 02:35:00,
2013-02-17 20:40:00,54.9,29.7,29.97,WSW,255,5.0,8.0,38,0.00,CLR,,0.00,WeatherDisplay:10.37,2013-02-18 02:40:00,
2013-02-17 20:45:00,54.9,29.7,29.97,WSW,255,5.0,6.0,38,0.00,CLR,,0.00,WeatherDisplay:10.37,2013-02-18 02:45:00,
2013-02-17 20:50:00,54.5,29.4,29.97,West,265,5.8,5.8,38,0.00,CLR,,0.00,WeatherDisplay:10.37,2013-02-18 02:50:00,
2013-02-17 20:55:00,54.5,29.4,29.97,WSW,255,5.0,9.0,38,0.00,CLR,,0.00,WeatherDisplay:10.37,2013-02-18 02:55:00,
2013-02-17 21:00:00,54.9,29.7,29.97,WSW,255,5.0,8.0,38,0.00,CLR,,0.00,WeatherDisplay:10.37,2013-02-18 03:00:00,
2013-02-17 21:05:00,55.4,30.2,29.97,WSW,251,11.5,11.5,38,0.00,CLR,,0.00,WeatherDisplay:10.37,2013-02-18 03:05:00,
2013-02-17 21:10:00,55.6,31.0,29.97,WSW,257,6.0,12.0,39,0.00,CLR,,0.00,WeatherDisplay:10.37,2013-02-18 03:10:00,
2013-02-17 21:15:00,55.8,31.2,29.97,WSW,247,9.2,9.2,39,0.00,CLR,,0.00,WeatherDisplay:10.37,2013-02-18 03:15:00,
2013-02-17 21:20:00,55.9,31.3,29.97,WSW,254,7.0,9.0,39,0.00,CLR,,0.00,WeatherDisplay:10.37,2013-02-18 03:20:00,
2013-02-17 21:25:00,55.8,31.2,29.97,WSW,253,7.0,9.0,39,0.00,CLR,,0.00,WeatherDisplay:10.37,2013-02-18 03:25:00,
2013-02-17 21:30:00,56.1,32.1,29.97,SW,223,8.1,8.1,40,0.00,CLR,,0.00,WeatherDisplay:10.37,2013-02-18 03:30:00,
2013-02-17 21:35:00,55.9,32.6,29.97,WSW,253,8.0,10.0,41,0.00,CLR,,0.00,WeatherDisplay:10.37,2013-02-18 03:35:00,
2013-02-17 21:40:00,55.9,33.2,29.97,WSW,251,7.0,10.0,42,0.00,CLR,,0.00,WeatherDisplay:10.37,2013-02-18 03:40:00,
2013-02-17 21:45:00,55.8,33.0,29.97,West,259,8.1,8.1,42,0.00,CLR,,0.00,WeatherDisplay:10.37,2013-02-18 03:45:00,
2013-02-17 21:50:00,55.8,34.2,29.97,WSW,250,8.0,11.0,44,0.00,CLR,,0.00,WeatherDisplay:10.37,2013-02-18 03:50:00,
2013-02-17 21:55:00,55.8,34.7,29.97,WSW,249,12.7,12.7,45,0.00,CLR,,0.00,WeatherDisplay:10.37,2013-02-18 03:55:00,
2013-02-17 22:00:00,55.9,35.4,29.97,West,271,10.4,10.4,46,0.00,CLR,,0.00,WeatherDisplay:10.37,2013-02-18 04:00:00,
2013-02-17 22:05:00,56.1,36.1,29.97,WSW,246,9.0,11.0,47,0.00,CLR,,0.00,WeatherDisplay:10.37,2013-02-18 04:05:00,
2013-02-17 22:10:00,56.1,36.7,29.97,WSW,251,10.0,15.0,48,0.00,CLR,,0.00,WeatherDisplay:10.37,2013-02-18 04:10:00,
2013-02-17 22:15:00,56.5,37.5,29.97,West,262,10.4,10.4,49,0.00,CLR,,0.00,WeatherDisplay:10.37,2013-02-18 04:15:00,
2013-02-17 22:20:00,56.5,38.1,29.97,WSW,255,10.0,13.0,50,0.00,CLR,,0.00,WeatherDisplay:10.37,2013-02-18 04:20:00,
2013-02-17 22:25:00,56.5,38.1,29.97,SW,229,9.2,9.2,50,0.00,CLR,,0.00,WeatherDisplay:10.37,2013-02-18 04:25:00,
2013-02-17 22:30:00,56.3,38.4,29.97,WSW,257,10.4,10.4,51,0.00,CLR,,0.00,WeatherDisplay:10.37,2013-02-18 04:30:00,
2013-02-17 22:35:00,56.5,38.5,29.97,WSW,249,10.0,13.0,51,0.00,CLR,,0.00,WeatherDisplay:10.37,2013-02-18 04:35:00,
2013-02-17 22:40:00,56.3,38.9,29.97,WSW,245,9.0,12.0,52,0.00,CLR,,0.00,WeatherDisplay:10.37,2013-02-18 04:40:00,
2013-02-17 22:45:00,56.3,39.4,29.97,WSW,249,15.0,15.0,53,0.00,CLR,,0.00,WeatherDisplay:10.37,2013-02-18 04:45:00,
2013-02-17 22:50:00,56.3,39.4,29.97,West,259,12.7,12.7,53,0.00,CLR,,0.00,WeatherDisplay:10.37,2013-02-18 04:50:00,
2013-02-17 22:55:00,56.3,39.9,29.97,SW,220,10.5,10.5,54,0.00,CLR,,0.00,WeatherDisplay:10.37,2013-02-18 04:55:00,
2013-02-17 23:00:00,56.1,39.7,29.97,WSW,255,11.5,11.5,54,0.00,CLR,,0.00,WeatherDisplay:10.37,2013-02-18 05:00:00,
2013-02-17 23:05:00,56.1,40.2,29.97,WSW,245,11.8,11.8,55,0.00,CLR,,0.00,WeatherDisplay:10.37,2013-02-18 05:05:00,
2013-02-17 23:10:00,56.1,40.2,29.97,West,281,10.4,10.4,55,0.00,CLR,,0.00,WeatherDisplay:10.37,2013-02-18 05:10:00,
2013-02-17 23:15:00,56.1,40.6,29.97,West,261,11.5,11.5,56,0.00,CLR,,0.00,WeatherDisplay:10.37,2013-02-18 05:15:00,
2013-02-17 23:20:00,56.1,40.6,29.94,WSW,245,12.7,12.7,56,0.00,CLR,,0.00,WeatherDisplay:10.37,2013-02-18 05:20:00,
2013-02-17 23:25:00,55.9,40.5,29.94,WSW,258,11.5,11.5,56,0.00,CLR,,0.00,WeatherDisplay:10.37,2013-02-18 05:25:00,
2013-02-17 23:30:00,55.9,40.9,29.94,SW,229,12.7,12.7,57,0.00,CLR,,0.00,WeatherDisplay:10.37,2013-02-18 05:30:00,
2013-02-17 23:35:00,55.9,40.9,29.97,West,266,15.0,15.0,57,0.00,CLR,,0.00,WeatherDisplay:10.37,2013-02-18 05:35:00,
2013-02-17 23:40:00,55.9,41.4,29.97,WSW,245,12.7,12.7,58,0.00,CLR,,0.00,WeatherDisplay:10.37,2013-02-18 05:40:00,
2013-02-17 23:45:00,55.6,41.0,29.97,WSW,245,11.5,11.5,58,0.00,CLR,,0.00,WeatherDisplay:10.37,2013-02-18 05:45:00,
2013-02-17 23:50:00,55.6,41.0,29.94,West,268,11.5,11.5,58,0.00,CLR,,0.00,WeatherDisplay:10.37,2013-02-18 05:50:00,
2013-02-17 23:55:00,55.6,41.5,29.94,SW,219,12.7,12.7,59,0.00,CLR,,0.00,WeatherDisplay:10.37,2013-02-18 05:55:00,